CAPE
0 0 0 0 0 0 0 0 0 0 0 0 0 0 0 0 0 0 0 0 0 0 0 0 0 0 0 0 0 0 0 0 0 0 0 0 0 0 0 0 0 0 0 1
0 0 0 0 0 0 0 0 0 0 0 0 0 0 0 0 0 0 0 0 0 0 0 0 0 0 0 0 0 0 0 0 0 0 0 0 0 0 0 0 0 0 1 13
0 0 0 0 0 0 0 0 0 0 0 0 0 0 0 0 0 0 0 0 0 0 0 0 0 0 0 0 0 0 0 0 0 0 0 0 0 0 0 0 0 2 10 13
0 0 0 0 0 0 0 0 0 0 0 0 0 0 0 0 0 0 0 0 0 0 0 0 0 0 0 0 0 0 0 0 0 0 0 0 0 0 1 2 3 6 10 12
0 0 0 0 0 0 0 0 0 0 0 0 0 0 0 0 0 0 0 0 0 0 0 0 0 0 0 0 0 0 0 0 0 0 0 1 3 4 5 4 6 7 10 12
0 0 0 0 0 0 0 0 0 0 0 0 0 0 0 0 2 0 0 0 0 0 0 0 0 0 0 0 0 0 0 0 0 0 0 1 5 5 4 6 8 10 11 13
0 0 0 0 0 0 0 0 0 1 0 0 0 6 41 0 0 0 0 0 0 0 0 0 0 0 0 0 0 0 0 0 0 0 0 1 2 4 6 9 11 9 10 12
0 0 0 0 0 0 0 2 38 14 4 0 0 0 64 0 0 0 0 0 0 0 0 0 0 0 0 0 0 0 0 0 0 0 0 1 3 5 4 4 9 10 14 17
0 0 0 0 0 0 0 0 0 12 5 17 0 3 67 0 0 0 0 0 0 0 0 0 0 0 0 0 0 0 0 0 0 0 0 0 1 0 0 1 4 9 7 12
0 0 0 0 0 0 0 0 1 52 42 25 30 47 106 35 0 0 0 0 0 0 0 0 0 0 0 0 0 0 0 0 0 0 0 0 0 0 0 0 0 2 6 7
0 0 0 0 0 0 1 30 13 32 65 73 48 123 83 164 164 0 0 0 0 0 1 0 0 0 0 0 0 0 0 0 0 0 2 0 0 0 0 0 0 0 0 2
0 3 15 0 0 0 3 6 8 96 2 104 82 67 251 105 271 160 0 0 0 1 1 0 1 0 1 0 0 0 0 0 0 0 0 3 0 0 0 0 1 0 0 0
0 22 0 0 18 4 0 0 29 135 75 13 125 167 325 140 155 139 18 0 0 1 4 5 1 0 0 0 0 0 0 1 1 0 0 0 1 0 0 0 0 0 0 0
0 0 0 29 16 0 0 0 5 134 128 89 54 71 203 228 299 330 93 0 0 1 2 2 3 1 1 2 0 0 0 0 0 0 0 0 0 0 0 0 0 0 0 0
1 1 0 0 0 0 0 0 0 10 22 65 13 29 76 108 254 388 246 0 0 0 0 0 0 0 0 0 0 0 0 0 0 0 0 0 0 0 0 0 0 0 0 0
10 37 6 0 0 0 1 1 0 0 0 0 0 0 80 110 92 99 109 0 0 0 0 0 0 0 0 0 0 0 0 0 0 0 0 0 0 0 0 0 0 0 0 0
15 47 44 10 25 27 32 1 11 0 0 2 0 16 62 88 73 37 19 0 0 0 0 0 0 0 0 0 0 0 0 0 0 0 0 0 0 0 0 0 0 0 0 0
6 14 44 42 41 25 0 0 0 0 2 68 49 33 64 46 15 53 36 0 0 0 0 0 0 0 0 0 0 0 0 0 0 0 0 0 0 0 0 0 0 0 0 0
9 46 52 41 49 3 0 0 1 31 34 44 52 39 0 0 0 0 0 0 0 0 0 0 0 0 0 0 0 0 0 0 0 0 0 0 0 0 0 0 0 0 0 0
3 52 59 42 33 13 0 2 15 24 64 0 0 29 5 0 35 0 0 0 0 0 0 0 0 0 0 0 0 0 0 0 0 0 0 0 0 0 0 0 0 0 0 0
19 54 52 83 29 7 0 39 42 16 48 0 0 0 0 3 26 0 0 0 0 0 0 0 0 0 0 0 0 0 0 0 0 0 0 0 0 0 0 0 1 0 0 0
82 27 29 39 26 17 2 58 41 99 10 0 0 0 1 0 0 0 0 0 0 0 0 0 0 0 0 0 0 0 0 0 0 0 0 0 0 0 0 0 0 0 1 4
131 39 125 34 45 69 29 100 45 9 2 0 4 0 0 0 0 0 0 0 0 0 0 0 0 0 0 0 0 0 0 0 0 0 0 0 0 0 0 0 0 0 0 0
76 157 4 115 164 28 42 65 8 0 15 0 0 0 0 0 0 0 0 0 0 0 0 0 0 0 0 0 0 0 0 0 0 0 0 0 0 0 0 0 0 0 0 0
100 29 41 103 170 131 43 19 36 0 0 0 0 0 0 0 0 0 0 0 0 0 0 0 0 0 0 0 0 0 0 0 0 0 0 0 0 0 0 0 0 0 0 0
105 91 233 295 97 171 102 36 25 0 0 0 0 0 0 0 0 0 0 0 0 0 0 0 0 0 0 0 0 0 0 0 0 0 0 0 0 0 0 0 0 0 0 0
CIN
-0 -0 -0 -0 -0 -0 -0 -0 -0 -0 -0 -0 -0 -0 -0 -0 -0 -0 -0 -0 -0 -0 -0 -0 -0 -0 -0 -0 -0 -0 -0 -0 -0 -0 -0 -0 -0 -0 -0 -0 -0 -0 -0 -3
-0 -0 -0 -0 -0 -0 -0 -0 -0 -0 -0 -0 -0 -0 -0 -0 -0 -0 -0 -0 -0 -0 -0 -0 -0 -0 -0 -0 -0 -0 -0 -0 -0 -0 -0 -0 -0 -0 -0 -0 -0 -0 -0 -0
-0 -0 -0 -0 -0 -0 -0 -0 -0 -0 -0 -0 -0 -0 -0 -0 -0 -0 -0 -0 -0 -0 -0 -0 -0 -0 -0 -0 -0 -0 -0 -0 -0 -0 -0 -0 -0 -0 -0 -0 -0 -0 -0 -0
-0 -0 -0 -0 -0 -0 -0 -0 -0 -0 -0 -0 -0 -0 -0 -0 -0 -0 -0 -0 -0 -0 -0 -0 -0 -0 -0 -0 -0 -0 -0 -0 -0 -0 -0 -0 -0 -0 -0 -0 -0 -0 -0 -0
-0 -0 -0 -0 -0 -0 -0 -0 -0 -0 -0 -0 -0 -0 -0 -0 -0 -27 -0 -0 -0 -0 -0 -0 -0 -0 -0 -0 -0 -0 -0 -0 -0 -0 -0 -0 -0 -0 -0 -0 -0 -0 -0 -0
-0 -0 -0 -0 -0 -0 -0 -0 -0 -0 -0 -0 -0 -0 -0 -13 -30 -9 -0 -0 -0 -0 -0 -0 -0 -0 -0 -0 -0 -0 -0 -0 -0 -0 -0 -0 -0 -0 -0 -0 -0 -0 -0 -0
-0 -0 -0 -0 -0 -0 -0 -0 -0 -0 -0 -0 -0 -0 -35 -0 -0 -0 -0 -0 -0 -0 -0 -0 -0 -0 -0 -0 -0 -0 -0 -0 -0 -0 -0 -0 -0 -0 -0 -0 -0 -0 -0 -0
-0 -0 -0 -0 -0 -0 -0 -1 -0 -0 -1 -0 -0 -0 -28 -0 -0 -0 -0 -0 -0 -0 -0 -0 -0 -0 -0 -0 -0 -0 -0 -0 -0 -0 -0 -0 -0 -0 -0 -0 -0 -0 -0 -0
-0 -0 -0 -0 -0 -0 -0 -0 -0 -0 -0 -0 -0 -2 -73 -0 -0 -0 -0 -0 -0 -0 -0 -0 -0 -0 -0 -0 -0 -0 -0 -0 -0 -0 -0 -0 -0 -0 -0 -0 -0 -0 -0 -0
-0 -0 -0 -0 -0 -0 -0 -0 -0 -1 -1 -0 -1 -0 -36 -44 -0 -0 -0 -0 -0 -0 -0 -0 -0 -0 -0 -0 -0 -0 -0 -0 -0 -0 -0 -0 -0 -0 -0 -0 -0 -0 -0 -0
-0 -0 -0 -0 -0 -0 -0 -0 -2 -2 -2 -1 -0 -0 -13 -7 -6 -0 -0 -0 -0 -0 -0 -0 -0 -0 -0 -0 -0 -0 -0 -0 -0 -0 -0 -0 -0 -0 -0 -0 -0 -0 -0 -0
-0 -1 -0 -0 -0 -0 -2 -0 -0 -4 -0 -1 -14 -0 -27 -91 -20 -85 -0 -0 -0 -0 -0 -0 -0 -0 -0 -0 -0 -0 -0 -0 -0 -0 -0 -1 -0 -0 -0 -0 -0 -0 -0 -0
-0 -0 -0 -0 -16 -1 -0 -0 -1 -0 -3 -3 -4 -0 -14 -14 -33 -35 -126 -0 -0 -0 -0 -0 -0 -0 -0 -0 -0 -0 -0 -0 -0 -0 -0 -0 -0 -0 -0 -0 -0 -0 -0 -0
-0 -0 -0 -1 -3 -0 -0 -0 -3 -0 -9 -14 -30 -23 -15 -7 -6 -15 -75 -0 -0 -0 -0 -0 -0 -0 -0 -0 -0 -0 -0 -0 -0 -0 -0 -0 -0 -0 -0 -0 -5 -0 -0 -0
-0 -0 -0 -0 -0 -0 -0 -0 -0 -8 -27 -5 -12 -10 -14 -11 -7 -3 -60 -0 -0 -0 -0 -0 -0 -0 -0 -0 -0 -0 -0 -0 -0 -0 -0 -0 -0 -0 -0 -0 -0 -0 -0 -0
-1 -26 -1 -0 -0 -0 -0 -16 -0 -0 -0 -0 -0 -0 -24 -6 -10 -9 -57 -0 -0 -0 -0 -0 -0 -0 -0 -0 -0 -0 -0 -0 -0 -0 -0 -0 -0 -0 -0 -0 -0 -0 -0 -0
-0 -0 -0 -0 -0 -0 -0 -6 -19 -0 -0 -0 -0 -14 -5 -1 -5 -44 -78 -0 -0 -0 -0 -0 -0 -0 -0 -0 -0 -0 -0 -0 -0 -0 -0 -0 -0 -0 -0 -0 -0 -0 -0 -0
-0 -0 -0 -0 -0 -0 -0 -0 -0 -0 -1 -3 -6 -2 -20 -68 -133 -34 -32 -0 -0 -0 -0 -0 -0 -0 -0 -0 -0 -0 -0 -0 -0 -0 -0 -0 -0 -0 -0 -0 -0 -0 -0 -0
-0 -0 -0 -0 -0 -0 -0 -0 -1 -12 -36 -46 -2 -15 -0 -0 -0 -0 -0 -0 -0 -0 -0 -0 -0 -0 -0 -0 -0 -0 -0 -0 -0 -0 -0 -0 -0 -0 -0 -0 -0 -0 -0 -0
-0 -0 -0 -0 -0 -0 -0 -6 -91 -2 -0 -0 -0 -18 -85 -0 -42 -18 -0 -0 -0 -0 -0 -0 -0 -0 -0 -0 -0 -0 -0 -0 -0 -0 -0 -0 -0 -0 -0 -0 -0 -0 -0 -0
-2 -2 -0 -0 -0 -0 -0 -61 -20 -9 -11 -0 -0 -0 -0 -31 -33 -0 -0 -0 -0 -0 -0 -0 -0 -0 -0 -0 -0 -0 -0 -0 -0 -0 -0 -0 -0 -0 -0 -0 -2 -0 -0 -0
-1 -5 -3 -1 -0 -0 -8 -13 -4 -13 -10 -0 -0 -0 -16 -0 -0 -0 -0 -0 -0 -0 -0 -0 -0 -0 -0 -0 -0 -0 -0 -0 -0 -0 -0 -0 -0 -0 -0 -0 -0 -0 -5 -7
-0 -13 -0 -1 -6 -54 -69 -2 -22 -26 -6 -0 -21 -0 -0 -0 -0 -0 -0 -0 -0 -0 -0 -0 -0 -0 -0 -0 -0 -0 -0 -0 -0 -0 -0 -0 -0 -0 -0 -0 -0 -0 -3 -2
-0 -1 -39 -5 -13 -94 -26 -1 -34 -0 -17 -0 -0 -0 -0 -0 -0 -0 -0 -0 -0 -0 -0 -0 -0 -0 -0 -0 -0 -0 -0 -0 -0 -0 -0 -0 -0 -0 -0 -0 -0 -0 -0 -0
-5 -34 -19 -27 -1 -4 -10 -4 -4 -0 -0 -0 -0 -0 -0 -0 -0 -0 -0 -0 -0 -0 -0 -0 -0 -0 -0 -0 -0 -0 -0 -0 -0 -0 -0 -0 -0 -0 -0 -0 -0 -0 -0 -0
-4 -0 -0 -0 -11 -2 -7 -11 -3 -0 -0 -0 -0 -0 -0 -0 -0 -0 -0 -0 -0 -0 -0 -0 -0 -0 -0 -0 -0 -0 -0 -0 -0 -0 -0 -0 -0 -0 -0 -0 -0 -0 -0 -0
Wind_Speed
12 10 12 16 16 11 12 13 16 17 19 20 17 16 14 13 16 15 14 12 12 12 15 11 7 7 5 6 7 8 8 9 8 8 7 7 8 7 7 7 13 11 13 13
13 14 17 16 13 10 11 16 18 19 18 18 17 20 15 13 12 20 16 14 14 17 13 10 7 5 4 6 7 8 9 10 9 7 6 7 7 7 8 9 10 13 14 13
17 15 3 8 12 14 15 15 17 20 19 18 17 23 18 20 24 17 16 13 12 15 11 10 6 5 5 7 6 8 8 9 8 10 7 7 7 7 8 9 9 11 12 12
14 15 13 10 16 13 17 14 13 15 13 13 13 19 14 18 19 9 14 9 13 14 9 8 6 5 7 7 5 7 7 9 9 10 9 11 8 7 8 9 9 9 12 12
8 3 6 7 10 9 10 13 11 13 15 15 15 12 16 15 17 10 14 14 12 11 9 9 7 6 7 5 5 5 6 9 8 9 10 8 9 7 7 8 11 12 10 12
15 16 14 8 10 10 11 11 15 14 12 14 18 17 18 8 6 13 17 16 13 12 9 8 7 5 7 6 6 5 6 9 8 9 10 11 11 11 9 11 9 9 9 9
15 18 17 15 11 12 12 9 5 5 8 13 19 17 10 12 10 9 14 15 13 11 11 9 10 7 7 6 6 5 8 8 9 9 10 10 11 12 12 11 9 11 9 10
12 13 14 15 14 12 13 14 10 16 12 14 21 14 4 13 11 12 13 13 12 10 8 8 7 7 6 5 7 8 8 8 9 9 10 9 11 7 7 9 9 8 9 10
7 10 3 3 5 9 10 12 16 15 15 13 13 16 14 14 11 10 8 11 8 9 8 9 9 7 5 6 7 8 8 8 9 9 8 8 8 8 7 10 9 8 11 10
9 12 13 14 11 14 15 13 11 8 11 16 13 16 2 1 0 9 7 7 10 4 7 8 8 6 7 4 7 9 8 8 8 8 9 9 9 9 9 10 12 12 11 12
11 12 13 15 14 14 12 15 14 14 8 12 15 5 3 6 6 8 8 7 6 11 3 5 8 7 5 2 7 7 8 6 6 7 7 7 7 8 8 8 8 9 12 13
10 5 8 17 17 18 16 17 16 8 14 10 4 6 5 7 4 8 9 11 8 8 8 4 6 5 2 7 5 5 4 8 4 3 4 4 3 4 5 4 5 6 9 12
8 5 9 12 15 20 16 15 13 15 13 17 9 5 5 5 6 5 10 12 13 11 10 7 6 5 1 6 4 4 2 3 4 4 1 2 2 2 4 4 3 2 6 8
4 10 14 11 14 16 17 19 19 14 6 8 9 15 9 10 14 11 12 12 13 13 12 10 7 6 5 4 4 5 3 2 4 7 6 1 5 4 4 1 5 3 6 5
8 15 15 18 19 19 20 22 21 21 18 13 14 18 15 14 10 7 15 13 15 15 14 12 11 9 8 7 7 9 8 6 6 3 4 4 6 6 7 7 8 8 10 10
11 17 15 18 16 19 22 18 17 23 22 22 21 21 16 11 5 4 10 13 13 13 13 13 12 12 11 11 8 7 6 5 6 6 6 5 6 6 6 8 8 9 11 12
15 12 10 18 15 19 20 11 16 22 21 21 19 17 15 6 8 5 11 12 12 12 13 12 12 12 10 9 8 7 7 5 6 6 7 7 7 7 7 9 9 9 10 11
17 15 10 13 15 20 9 15 20 21 20 16 14 12 9 10 5 6 9 12 10 12 13 11 8 8 7 8 8 7 7 7 7 7 7 7 7 8 8 8 9 9 9 10
18 14 7 8 12 18 22 21 18 5 10 22 7 6 8 7 7 6 5 9 8 10 11 11 8 7 8 8 8 8 8 7 7 7 7 8 8 8 8 8 8 8 8 8
19 17 12 10 8 10 8 5 16 2 8 8 8 6 6 4 2 4 8 9 8 12 13 12 12 10 8 8 8 9 8 7 6 6 6 7 7 7 7 7 7 7 7 7
10 13 14 11 10 11 14 12 15 7 2 4 4 1 4 2 4 11 10 9 10 12 14 14 14 11 11 9 9 9 9 7 7 7 7 7 6 5 5 5 4 4 4 4
7 9 8 9 9 13 11 7 2 4 2 4 0 5 12 10 11 12 10 10 11 14 15 15 11 10 10 10 9 9 9 9 8 7 7 5 5 5 4 3 3 3 3 2
7 11 8 9 3 11 8 4 6 1 2 2 2 4 13 10 11 12 11 13 12 14 13 12 11 11 10 10 9 10 10 10 9 8 6 6 5 4 3 4 4 4 4 3
7 14 2 10 9 14 11 9 1 1 1 4 4 7 10 10 12 12 12 12 11 11 11 11 12 11 9 9 8 10 10 10 8 7 6 5 4 4 4 4 5 5 6 5
6 2 8 10 12 6 4 6 4 3 1 4 3 6 7 11 12 12 12 11 10 11 10 9 10 9 10 9 7 10 9 9 8 7 6 5 4 3 7 6 5 6 5 5
11 8 4 4 2 3 4 4 5 8 6 4 5 5 6 9 12 12 10 9 10 10 9 9 10 9 10 10 8 9 9 8 7 5 4 4 4 3 5 7 6 10 8 7
Wind_Direction
247 243 247 254 263 317 314 293 290 293 302 305 299 286 254 219 195 203 208 191 185 174 108 108 87 82 16 56 33 36 31 26 19 13 355 357 357 342 347 349 7 358 7 351
241 245 261 287 311 319 299 290 285 287 283 277 284 285 289 282 247 199 201 193 186 130 127 117 98 85 62 60 35 41 34 33 23 8 6 3 343 356 5 5 1 8 352 356
257 264 318 293 293 292 281 281 286 289 299 299 306 287 276 263 248 234 185 193 180 141 140 122 122 105 93 65 42 48 48 42 30 12 17 4 1 5 7 4 0 350 356 352
272 277 283 307 287 283 278 284 325 318 313 287 298 294 290 288 283 131 160 149 104 98 84 106 127 111 91 82 63 52 56 51 33 31 22 17 11 9 7 4 352 354 350 349
243 237 250 257 268 301 300 319 307 298 289 291 270 264 287 278 278 193 143 122 117 128 137 132 122 109 96 87 87 58 55 59 40 38 37 23 20 11 5 3 358 356 350 349
264 284 291 274 277 284 299 287 280 266 261 259 271 254 268 313 25 117 138 138 144 128 126 118 114 146 109 86 61 45 30 59 40 40 40 30 22 16 14 9 2 354 350 350
244 242 248 239 251 263 245 257 276 260 247 259 262 274 45 89 49 84 129 132 132 137 141 153 163 134 75 64 60 35 36 45 51 44 43 33 28 22 18 11 1 357 354 354
280 281 264 201 204 269 278 232 236 281 300 305 311 295 32 74 49 44 84 117 129 147 134 121 97 88 80 71 57 43 42 29 45 43 45 38 32 29 19 15 9 358 356 359
290 283 110 105 268 275 269 260 261 275 275 279 273 274 102 94 68 26 101 129 120 131 139 128 115 101 94 67 70 51 55 21 35 44 51 44 35 33 22 26 18 12 5 4
283 286 281 298 263 243 247 275 293 285 283 271 274 294 98 231 244 180 179 172 157 141 148 141 119 106 72 7 91 79 52 32 18 47 48 38 27 37 31 34 29 18 10 12
285 281 275 276 247 256 278 230 239 261 274 281 276 284 49 12 196 194 181 190 179 170 84 111 122 106 124 192 84 99 103 63 34 24 56 63 37 41 38 30 36 29 28 20
277 294 279 267 284 293 281 277 283 271 271 268 280 266 155 172 259 174 197 195 180 146 147 95 59 109 179 98 42 87 35 106 108 42 29 35 91 28 34 25 11 29 49 36
350 281 265 263 244 239 250 263 288 293 284 274 266 264 152 185 228 235 170 179 177 163 143 154 157 134 147 109 110 85 75 105 114 105 79 353 347 109 28 2 18 28 68 55
342 270 270 279 300 309 297 292 288 268 264 304 278 294 286 256 256 242 191 165 158 166 163 175 162 161 151 139 142 140 183 271 131 164 138 76 344 67 117 350 14 80 69 90
267 264 274 277 286 292 291 290 296 299 286 257 277 290 297 292 314 353 166 158 161 170 171 174 174 170 171 173 177 179 167 167 134 73 72 93 88 41 53 49 38 43 43 48
258 262 259 267 273 270 270 261 255 265 274 277 279 280 278 266 337 48 142 153 163 174 173 175 174 169 175 175 167 151 140 127 115 110 104 79 76 75 61 57 57 47 48 41
272 268 274 271 272 279 266 248 240 255 263 265 267 274 295 260 124 130 135 154 174 174 170 171 173 167 160 156 145 149 137 130 107 98 87 79 72 68 64 67 54 53 52 50
251 262 266 276 279 268 270 264 262 265 270 248 270 280 30 65 59 96 147 157 166 164 164 159 125 128 133 143 138 133 134 118 99 85 81 77 74 71 60 55 67 62 55 51
231 246 260 253 256 280 280 280 293 249 294 304 356 47 106 114 124 85 98 121 142 145 143 118 115 124 149 144 153 136 117 110 100 86 78 69 68 61 59 59 53 52 66 60
214 219 231 256 269 273 317 30 303 246 238 54 32 25 115 126 163 93 108 112 119 128 129 139 146 157 159 145 142 130 115 112 100 97 94 91 84 74 75 64 48 52 55 53
198 202 223 228 251 266 284 129 250 264 62 121 100 328 151 139 55 111 111 116 124 135 140 149 161 169 147 156 147 137 129 122 135 118 106 101 80 72 73 59 86 100 65 54
210 196 205 226 243 260 254 155 232 108 114 107 191 99 100 115 122 125 119 131 150 150 144 155 164 156 157 160 151 149 135 154 144 132 123 108 110 106 88 23 124 73 90 91
209 219 218 213 219 3 352 38 91 43 173 146 94 97 122 136 134 136 149 161 163 151 154 158 163 144 158 162 165 153 152 149 145 144 138 127 114 90 74 96 37 28 49 53
255 271 359 328 246 210 206 247 187 186 267 123 128 139 137 146 144 148 167 167 165 150 163 167 145 154 156 165 173 140 149 147 151 149 139 144 149 152 152 114 86 47 19 12
269 347 248 219 267 337 59 311 154 165 95 122 134 136 160 142 149 156 169 167 162 158 158 157 150 156 161 158 167 131 153 157 161 157 152 135 137 192 94 70 28 100 59 46
280 276 286 287 8 335 96 227 173 160 177 160 145 148 135 145 149 165 159 160 159 151 147 157 155 161 160 155 165 145 167 172 159 150 154 153 168 168 147 146 118 86 120 103